Hourly Data Report for June 23, 2021

SATURNA ISLAND CS
BRITISH COLUMBIA
Current Station Operator: ECCC - MSC

48°47'02.067" N
123°02'41.082" W
24.40 m
1017101
71473
WEZ

Download Data

Hourly Data (June 2021)
Hourly Data Report for June 23, 2021
TIME
LST
Temp Definition
°C
Dew Point Definition
°C
Rel Hum Definition
%
Precip. Amount Definition
mm

Wind Dir Definition
10's deg

Wind Spd Definition
km/h
Visibility Definition
km
Stn Press Definition
kPa
Hmdx Definition


Wind Chill Definition


Weather Definition


00:00 14.0 11.2 84 0.0 24 21   100.59     LegendNANA
01:00 13.8 11.2 84 0.0 23 24   100.61     LegendNANA
02:00 13.3 11.2 87 0.0 24 18   100.67     LegendNANA
03:00 13.1 11.2 88 0.0 25 16   100.71     LegendNANA
04:00 13.2 11.3 88 0.0 24 21   100.79     LegendNANA
05:00 14.0 11.3 84 0.0 24 19   100.82     LegendNANA
06:00 14.0 10.4 79 0.0 22 25   100.89     LegendNANA
07:00 14.4 11.0 80 0.0 24 19   100.95     LegendNANA
08:00 15.2 10.2 72 0.0 23 23   101.01     LegendNANA
09:00 17.3 11.0 67 0.0 22 25   101.02     LegendNANA
10:00 17.6 11.0 65 0.0 22 25   101.05     LegendNANA
11:00 18.0 10.9 63 0.0 22 22   101.10     LegendNANA
12:00 18.2 11.0 62 0.0 22 22   101.11     LegendNANA
13:00 17.7 11.2 66 0.0 23 22   101.11     LegendNANA
14:00 18.3 11.5 64 0.0 24 18   101.10     LegendNANA
15:00 19.4 11.4 60 0.0 24 16   101.09     LegendNANA
16:00 19.2 11.2 60 0.0 24 19   101.08     LegendNANA
17:00 18.0 11.2 64 0.0 24 19   101.04     LegendNANA
18:00 17.8 11.7 67 0.0 23 16   101.04     LegendNANA
19:00 16.7 11.6 72 0.0 21 10   101.06     LegendNANA
20:00 16.4 11.6 73 0.0 21 9   101.08     LegendNANA
21:00 17.1 12.0 72 0.0 24 18   101.11     LegendNANA
22:00 13.6 10.6 82 0.0 24 23   101.13     LegendNANA
23:00 13.3 10.7 84 0.0 24 23   101.15     LegendNANA

Notes on Data Quality.

Legend

  • E = Estimated
  • M = Missing
  • NA = Not Available*
  • [empty] = Indicates an unobserved value
Date modified: